Location: Härggis
(46.9540°N, 8.4897°E)
Time: 13:22:47
(UTC+00:00)

SL-16 R/B - Pass Details

Date: 29 September 2022
Orbit: 985 x 1007 km, 99.6° (Epoch: 26 November)

Event Time Altitude Azimuth Distance (km) Brightness Sun altitude
Exits shadow 00:27:43 26° 19° (NNE) 1,843 4.3 -42.8°
Drops below altitude 10° 00:30:47 10° 358° (N) 2,774 5.4 -42.6°
Sets 00:33:26 0° 351° (N) 3,730 6.1 -42.4°
